Weather Service Report


957 
ASUS41 KALY 280010
RWRALY

NEW YORK STATE HOURLY WEATHER ROUNDUP
NATIONAL WEATHER SERVICE ALBANY NY
800 PM EDT MON MAR 27 2017

NOTE: "FAIR" INDICATES FEW OR NO CLOUDS BELOW 12,000 FEET WITH NO
SIGNIFICANT WEATHER AND/OR NO OBSTRUCTIONS TO VISIBILITY.

NYZ032-033-038>043-046>054-057>066-NYZ062>081-082-084-280100-
EAST

  
CITY           SKY/WX    TMP DP  RH WIND       PRES   REMARKS
ALBANY         CLOUDY    43  38  82 E3        29.98S                  
GLENS FALLS    FOG       37  35  92 CALM      29.99R VSB 1/4          
POUGHKEEPSIE   CLEAR     42  40  92 CALM      29.99R                  
MONTGOMERY     CLEAR     41  38  89 CALM      29.97R                  
WHITE PLAINS   PTCLDY    47  43  86 CALM      29.98S                  
ISLIP          MOCLDY    48  46  93 N5        29.99S                  
NEW YORK CITY  MOCLDY    49  43  80 NE8       29.99S                  
CENTRAL PARK   CLEAR     47  43  86 NE5       30.01S                  
$$

NYZ005>009-017-018-044>046-055-056-280100-
CENTRAL

  
CITY           SKY/WX    TMP DP  RH WIND       PRES   REMARKS
FULTON         CLOUDY    45  41  86 SE3       29.92S                  
SYRACUSE       CLOUDY    43  40  89 NE3       29.91S                  
ROME           CLOUDY    40  38  93 E7        29.95S                  
ELMIRA         PTCLDY    50  46  86 CALM      29.91S                  
BINGHAMTON     CLOUDY    51  46  83 CALM      29.93R                  
MONTICELLO     CLEAR     45  45 100 CALM      29.97S                  
$$

NYZ026>034-041>043-087-280100-
NORTH

  
CITY           SKY/WX    TMP DP  RH WIND       PRES   REMARKS
WATERTOWN      CLOUDY    48  46  93 SW5       29.90R                  
FORT DRUM      NOT AVBL                                               
MASSENA        FOG       37  37 100 NE3       29.93R VSB 1/2          
SARANAC LAKE   CLOUDY    39  39 100 SW6       29.89S FOG     WCI  35  
PLATTSBURGH    CLOUDY    37  35  92 S7        29.93S WCI  32          
$$

NYZ001>004-010>016-019>021-085-280100-
WEST

  
CITY           SKY/WX    TMP DP  RH WIND       PRES   REMARKS
NIAGARA FALLS  CLOUDY    49  44  83 S9        29.90S                  
BUFFALO        CLOUDY    49  46  90 SW9       29.91F FOG              
DUNKIRK        PTCLDY    51  46  83 W3        29.93R                  
JAMESTOWN      PTCLDY    50  45  81 N6        29.92R                  
WELLSVILLE     CLOUDY    53  49  86 N7        29.93S                  
ROCHESTER      MOCLDY    55  48  77 W6        29.91S                  
PENN YAN       CLOUDY    53  46  77 CALM      29.92R                  
$$

             KEY
       WCI = WIND CHILL INDEX
       VSB = VISIBILITY
       HX  = HEAT INDEX
$$
  

Return to Home page


Western Regional Climate Center, wrcc@dri.edu